Time,TemperatureF,DewpointF,PressureIn,WindDirection,WindDirectionDegrees,WindSpeedMPH,WindSpeedGustMPH,Humidity,HourlyPrecipIn,Conditions,Clouds,dailyrainin,SoftwareType,DateUTC
2013-06-28 00:13:00,63.0,62.4,29.76,SSE,157,0.0,-999.0,98,-99.99,,,0.00,Acu-Link.com,2013-06-28 04:13:00,
2013-06-28 00:28:00,63.0,62.4,29.75,SSE,157,0.0,-999.0,98,-99.99,,,0.00,Acu-Link.com,2013-06-28 04:28:00,
2013-06-28 00:43:00,62.8,62.2,29.75,SSE,157,0.0,-999.0,98,-99.99,,,0.00,Acu-Link.com,2013-06-28 04:43:00,
2013-06-28 00:58:00,62.6,62.0,29.74,SSE,157,0.0,-999.0,98,-99.99,,,0.00,Acu-Link.com,2013-06-28 04:58:00,
2013-06-28 01:14:00,62.4,61.8,29.75,SSE,157,0.0,-999.0,98,-99.99,,,0.00,Acu-Link.com,2013-06-28 05:14:00,
2013-06-28 01:29:00,62.2,61.6,29.75,NNE,22,0.0,-999.0,98,-99.99,,,0.00,Acu-Link.com,2013-06-28 05:29:00,
2013-06-28 01:44:00,62.1,61.5,29.73,NNE,22,0.0,-999.0,98,-99.99,,,0.00,Acu-Link.com,2013-06-28 05:44:00,
2013-06-28 01:59:00,62.1,61.5,29.71,WNW,292,0.0,-999.0,98,-99.99,,,0.00,Acu-Link.com,2013-06-28 05:59:00,
2013-06-28 02:15:00,61.9,61.3,29.72,SW,225,0.0,-999.0,98,-99.99,,,0.00,Acu-Link.com,2013-06-28 06:15:00,
2013-06-28 02:30:00,61.7,61.1,29.70,WSW,247,0.0,-999.0,98,-99.99,,,0.00,Acu-Link.com,2013-06-28 06:30:00,
2013-06-28 02:45:00,61.5,60.9,29.71,NE,45,0.0,-999.0,98,-99.99,,,0.00,Acu-Link.com,2013-06-28 06:45:00,
2013-06-28 03:00:00,61.2,60.6,29.70,SW,225,0.0,-999.0,98,-99.99,,,0.00,Acu-Link.com,2013-06-28 07:00:00,
2013-06-28 03:16:00,61.2,60.6,29.70,NW,315,0.0,-999.0,98,-99.99,,,0.00,Acu-Link.com,2013-06-28 07:16:00,
2013-06-28 03:31:00,60.8,60.2,29.71,NE,45,0.0,-999.0,98,-99.99,,,0.00,Acu-Link.com,2013-06-28 07:31:00,
2013-06-28 03:46:00,60.6,60.0,29.69,WNW,292,0.0,-999.0,98,-99.99,,,0.00,Acu-Link.com,2013-06-28 07:46:00,
2013-06-28 04:01:00,60.1,59.5,29.68,NW,315,0.0,-999.0,98,-99.99,,,0.00,Acu-Link.com,2013-06-28 08:01:00,
2013-06-28 04:17:00,59.9,59.3,29.68,NW,315,0.0,-999.0,98,-99.99,,,0.00,Acu-Link.com,2013-06-28 08:17:00,
2013-06-28 04:32:00,59.9,59.3,29.68,NW,315,0.0,-999.0,98,-99.99,,,0.00,Acu-Link.com,2013-06-28 08:32:00,
2013-06-28 04:47:00,59.7,59.1,29.67,NE,45,0.0,-999.0,98,-99.99,,,0.00,Acu-Link.com,2013-06-28 08:47:00,
2013-06-28 05:02:00,59.2,58.6,29.65,South,180,0.0,-999.0,98,-99.99,,,0.00,Acu-Link.com,2013-06-28 09:02:00,
2013-06-28 05:17:00,58.8,58.2,29.65,ENE,67,1.7,-999.0,98,-99.99,,,0.00,Acu-Link.com,2013-06-28 09:17:00,
2013-06-28 05:32:00,58.3,57.7,29.65,WNW,292,0.0,-999.0,98,-99.99,,,0.01,Acu-Link.com,2013-06-28 09:32:00,
2013-06-28 05:47:00,57.9,57.3,29.64,SW,225,0.0,-999.0,98,-99.99,,,0.01,Acu-Link.com,2013-06-28 09:47:00,
2013-06-28 06:03:00,57.9,57.3,29.62,NW,315,0.0,-999.0,98,-99.99,,,0.18,Acu-Link.com,2013-06-28 10:03:00,
2013-06-28 06:18:00,57.7,57.1,29.63,NNW,337,0.0,-999.0,98,-99.99,,,0.23,Acu-Link.com,2013-06-28 10:18:00,
2013-06-28 06:33:00,57.7,57.1,29.65,NNW,337,0.0,-999.0,98,-99.99,,,0.32,Acu-Link.com,2013-06-28 10:33:00,
2013-06-28 06:48:00,57.7,57.1,29.64,NNW,337,0.0,-999.0,98,-99.99,,,0.44,Acu-Link.com,2013-06-28 10:48:00,
2013-06-28 07:04:00,57.7,57.1,29.62,NW,315,0.0,-999.0,98,-99.99,,,0.47,Acu-Link.com,2013-06-28 11:04:00,
2013-06-28 07:19:00,57.9,57.3,29.63,NNW,337,0.0,-999.0,98,-99.99,,,0.55,Acu-Link.com,2013-06-28 11:19:00,
2013-06-28 07:34:00,57.9,57.3,29.63,ESE,112,0.0,-999.0,98,-99.99,,,0.57,Acu-Link.com,2013-06-28 11:34:00,
2013-06-28 07:49:00,58.1,57.5,29.63,NNW,337,0.0,-999.0,98,-99.99,,,0.58,Acu-Link.com,2013-06-28 11:49:00,
2013-06-28 08:04:00,58.1,57.5,29.62,ENE,67,0.0,-999.0,98,-99.99,,,0.59,Acu-Link.com,2013-06-28 12:04:00,
2013-06-28 08:20:00,58.3,57.7,29.61,WNW,292,0.0,-999.0,98,-99.99,,,0.60,Acu-Link.com,2013-06-28 12:20:00,
2013-06-28 08:35:00,58.3,57.7,29.60,NE,45,0.0,-999.0,98,-99.99,,,0.61,Acu-Link.com,2013-06-28 12:35:00,
2013-06-28 08:50:00,58.3,57.7,29.60,NW,315,0.0,-999.0,98,-99.99,,,0.62,Acu-Link.com,2013-06-28 12:50:00,
2013-06-28 09:05:00,58.3,57.7,29.60,NNW,337,0.0,-999.0,98,-99.99,,,0.62,Acu-Link.com,2013-06-28 13:05:00,
2013-06-28 09:21:00,58.3,57.7,29.58,SW,225,2.7,-999.0,98,-99.99,,,0.63,Acu-Link.com,2013-06-28 13:21:00,
2013-06-28 09:36:00,58.1,57.5,29.57,NW,315,0.0,-999.0,98,-99.99,,,0.64,Acu-Link.com,2013-06-28 13:36:00,
2013-06-28 09:51:00,58.1,57.5,29.56,NNW,337,0.0,-999.0,98,-99.99,,,0.65,Acu-Link.com,2013-06-28 13:51:00,
2013-06-28 10:06:00,58.3,57.7,29.57,NW,315,0.0,-999.0,98,-99.99,,,0.65,Acu-Link.com,2013-06-28 14:06:00,
2013-06-28 10:22:00,58.3,57.7,29.56,NW,315,0.0,-999.0,98,-99.99,,,0.72,Acu-Link.com,2013-06-28 14:22:00,
2013-06-28 10:37:00,58.3,57.7,29.55,SW,225,0.0,-999.0,98,-99.99,,,0.73,Acu-Link.com,2013-06-28 14:37:00,
2013-06-28 10:52:00,58.3,57.7,29.55,SW,225,0.0,-999.0,98,-99.99,,,0.75,Acu-Link.com,2013-06-28 14:52:00,
2013-06-28 11:07:00,58.3,57.7,29.55,SW,225,0.0,-999.0,98,-99.99,,,0.77,Acu-Link.com,2013-06-28 15:07:00,
2013-06-28 11:22:00,58.8,58.2,29.55,SW,225,0.0,-999.0,98,-99.99,,,0.79,Acu-Link.com,2013-06-28 15:22:00,
2013-06-28 11:38:00,59.0,58.4,29.55,SW,225,0.0,-999.0,98,-99.99,,,0.80,Acu-Link.com,2013-06-28 15:38:00,
2013-06-28 12:08:00,59.5,58.9,29.54,SW,225,0.0,-999.0,98,-99.99,,,0.81,Acu-Link.com,2013-06-28 16:08:00,
2013-06-28 12:23:00,59.7,59.1,29.54,SW,225,0.0,-999.0,98,-99.99,,,0.82,Acu-Link.com,2013-06-28 16:23:00,
2013-06-28 12:39:00,59.9,59.3,29.53,SW,225,0.0,-999.0,98,-99.99,,,0.82,Acu-Link.com,2013-06-28 16:39:00,
2013-06-28 12:54:00,60.1,59.5,29.52,SW,225,0.0,-999.0,98,-99.99,,,0.82,Acu-Link.com,2013-06-28 16:54:00,
2013-06-28 13:09:00,60.1,59.5,29.52,SW,225,0.0,-999.0,98,-99.99,,,0.83,Acu-Link.com,2013-06-28 17:09:00,
2013-06-28 13:24:00,60.3,59.7,29.52,SW,225,0.0,-999.0,98,-99.99,,,0.83,Acu-Link.com,2013-06-28 17:24:00,
2013-06-28 13:39:00,60.6,60.0,29.52,SW,225,0.0,-999.0,98,-99.99,,,0.83,Acu-Link.com,2013-06-28 17:39:00,
2013-06-28 13:55:00,60.6,60.0,29.52,SW,225,0.0,-999.0,98,-99.99,,,0.83,Acu-Link.com,2013-06-28 17:55:00,
2013-06-28 14:10:00,61.0,60.4,29.51,SW,225,0.0,-999.0,98,-99.99,,,0.83,Acu-Link.com,2013-06-28 18:10:00,
2013-06-28 14:25:00,61.2,60.6,29.51,SW,225,0.0,-999.0,98,-99.99,,,0.84,Acu-Link.com,2013-06-28 18:25:00,
2013-06-28 14:41:00,61.3,60.7,29.52,SW,225,0.0,-999.0,98,-99.99,,,0.84,Acu-Link.com,2013-06-28 18:41:00,
2013-06-28 14:56:00,61.7,60.8,29.51,SW,225,0.0,-999.0,97,-99.99,,,0.84,Acu-Link.com,2013-06-28 18:56:00,
2013-06-28 15:11:00,61.9,61.0,29.51,SW,225,0.0,-999.0,97,-99.99,,,0.84,Acu-Link.com,2013-06-28 19:11:00,
2013-06-28 15:26:00,62.1,61.2,29.51,SW,225,0.0,-999.0,97,-99.99,,,0.85,Acu-Link.com,2013-06-28 19:26:00,
2013-06-28 15:41:00,62.6,61.7,29.50,SW,225,0.0,-999.0,97,-99.99,,,0.86,Acu-Link.com,2013-06-28 19:41:00,
2013-06-28 15:57:00,62.8,62.2,29.50,SW,225,0.0,-999.0,98,-99.99,,,0.86,Acu-Link.com,2013-06-28 19:57:00,
2013-06-28 16:12:00,63.0,62.4,29.50,SW,225,0.0,-999.0,98,-99.99,,,0.86,Acu-Link.com,2013-06-28 20:12:00,
2013-06-28 16:27:00,63.3,62.7,29.49,SW,225,0.0,-999.0,98,-99.99,,,0.86,Acu-Link.com,2013-06-28 20:27:00,
2013-06-28 16:42:00,63.3,62.4,29.50,SW,225,0.0,-999.0,97,-99.99,,,0.86,Acu-Link.com,2013-06-28 20:42:00,
2013-06-28 16:58:00,63.1,61.9,29.50,WSW,247,0.0,-999.0,96,-99.99,,,0.86,Acu-Link.com,2013-06-28 20:58:00,
2013-06-28 17:13:00,63.1,61.9,29.49,WSW,247,0.0,-999.0,96,-99.99,,,0.86,Acu-Link.com,2013-06-28 21:13:00,
2013-06-28 17:28:00,63.1,61.9,29.48,WSW,247,0.0,-999.0,96,-99.99,,,0.86,Acu-Link.com,2013-06-28 21:28:00,
2013-06-28 17:43:00,63.1,61.9,29.48,SW,225,0.0,-999.0,96,-99.99,,,0.86,Acu-Link.com,2013-06-28 21:43:00,
2013-06-28 17:59:00,63.3,62.1,29.49,SW,225,0.0,-999.0,96,-99.99,,,0.86,Acu-Link.com,2013-06-28 21:59:00,
2013-06-28 18:14:00,63.1,61.9,29.50,WSW,247,0.0,-999.0,96,-99.99,,,0.86,Acu-Link.com,2013-06-28 22:14:00,
2013-06-28 18:29:00,63.0,61.8,29.50,WSW,247,0.0,-999.0,96,-99.99,,,0.86,Acu-Link.com,2013-06-28 22:29:00,
2013-06-28 18:44:00,63.0,62.1,29.49,WSW,247,0.0,-999.0,97,-99.99,,,0.86,Acu-Link.com,2013-06-28 22:44:00,
2013-06-28 18:59:00,62.6,61.7,29.50,WSW,247,0.0,-999.0,97,-99.99,,,0.86,Acu-Link.com,2013-06-28 22:59:00,
2013-06-28 19:15:00,62.6,61.7,29.50,WSW,247,0.0,-999.0,97,-99.99,,,0.86,Acu-Link.com,2013-06-28 23:15:00,
2013-06-28 19:30:00,62.6,61.7,29.51,WSW,247,0.0,-999.0,97,-99.99,,,0.86,Acu-Link.com,2013-06-28 23:30:00,
2013-06-28 19:45:00,62.4,61.5,29.50,WSW,247,0.0,-999.0,97,-99.99,,,0.86,Acu-Link.com,2013-06-28 23:45:00,
2013-06-28 20:00:00,62.4,61.8,29.51,WSW,247,0.0,-999.0,98,-99.99,,,0.86,Acu-Link.com,2013-06-29 00:00:00,
2013-06-28 20:15:00,62.4,61.8,29.51,WSW,247,0.0,-999.0,98,-99.99,,,0.86,Acu-Link.com,2013-06-29 00:15:00,
2013-06-28 20:31:00,62.2,61.6,29.51,WSW,247,0.0,-999.0,98,-99.99,,,0.87,Acu-Link.com,2013-06-29 00:31:00,
2013-06-28 20:46:00,62.2,61.6,29.51,WSW,247,0.0,-999.0,98,-99.99,,,0.91,Acu-Link.com,2013-06-29 00:46:00,
2013-06-28 21:01:00,62.1,61.5,29.51,WSW,247,0.0,-999.0,98,-99.99,,,0.95,Acu-Link.com,2013-06-29 01:01:00,
2013-06-28 21:16:00,62.1,61.5,29.50,WSW,247,0.0,-999.0,98,-99.99,,,0.98,Acu-Link.com,2013-06-29 01:16:00,
2013-06-28 21:31:00,62.1,61.5,29.52,SW,225,0.0,-999.0,98,-99.99,,,1.01,Acu-Link.com,2013-06-29 01:31:00,
2013-06-28 21:47:00,62.1,61.5,29.53,SW,225,0.0,-999.0,98,-99.99,,,1.06,Acu-Link.com,2013-06-29 01:47:00,
2013-06-28 22:02:00,62.1,61.5,29.52,WSW,247,0.0,-999.0,98,-99.99,,,1.07,Acu-Link.com,2013-06-29 02:02:00,
2013-06-28 22:17:00,61.9,61.3,29.51,WSW,247,0.0,-999.0,98,-99.99,,,1.07,Acu-Link.com,2013-06-29 02:17:00,
2013-06-28 22:33:00,61.9,61.3,29.51,WSW,247,0.0,-999.0,98,-99.99,,,1.07,Acu-Link.com,2013-06-29 02:33:00,
2013-06-28 22:48:00,62.1,61.5,29.51,SW,225,0.0,-999.0,98,-99.99,,,1.07,Acu-Link.com,2013-06-29 02:48:00,
2013-06-28 23:03:00,61.9,61.3,29.50,WSW,247,0.0,-999.0,98,-99.99,,,1.07,Acu-Link.com,2013-06-29 03:03:00,
2013-06-28 23:18:00,61.9,61.3,29.50,WSW,247,0.0,-999.0,98,-99.99,,,1.07,Acu-Link.com,2013-06-29 03:18:00,
2013-06-28 23:34:00,61.9,61.3,29.51,WSW,247,0.0,-999.0,98,-99.99,,,1.07,Acu-Link.com,2013-06-29 03:34:00,
2013-06-28 23:49:00,61.9,61.3,29.51,WSW,247,0.0,-999.0,98,-99.99,,,1.07,Acu-Link.com,2013-06-29 03:49:00,